TimeMST,TemperatureF,Dew PointF,Humidity,Sea Level PressureIn,VisibilityMPH,Wind Direction,Wind SpeedMPH,Gust SpeedMPH,PrecipitationIn,Events,Conditions,WindDirDegrees,DateUTC
12:56 AM,44.1,39.0,82,29.63,8.0,West,6.9,-,0.03,Rain,Light Rain,270,2012-11-10 07:56:00
1:46 AM,42.8,37.4,81,29.74,10.0,West,12.7,-,0.04,,Mostly Cloudy,260,2012-11-10 08:46:00
1:56 AM,41.0,36.0,82,29.65,10.0,West,8.1,-,0.04,,Mostly Cloudy,270,2012-11-10 08:56:00
2:12 AM,41.0,35.6,81,29.77,10.0,WSW,11.5,-,N/A,,Mostly Cloudy,240,2012-11-10 09:12:00
2:56 AM,39.9,34.0,79,29.67,10.0,WSW,13.8,-,N/A,,Mostly Cloudy,240,2012-11-10 09:56:00
3:56 AM,39.9,33.1,77,29.69,10.0,West,11.5,-,0.00,,Overcast,260,2012-11-10 10:56:00
4:56 AM,37.9,32.0,79,29.75,10.0,SSW,13.8,-,N/A,,Overcast,210,2012-11-10 11:56:00
5:56 AM,37.0,25.0,62,29.76,10.0,WSW,13.8,-,N/A,,Mostly Cloudy,250,2012-11-10 12:56:00
6:56 AM,35.1,26.1,70,29.81,10.0,WSW,6.9,-,N/A,,Partly Cloudy,250,2012-11-10 13:56:00
7:56 AM,37.0,28.0,70,29.83,10.0,SSW,8.1,-,N/A,,Clear,210,2012-11-10 14:56:00
8:56 AM,39.9,25.0,55,29.83,10.0,SSW,17.3,-,N/A,,Clear,210,2012-11-10 15:56:00
9:56 AM,42.1,21.9,45,29.84,10.0,SW,17.3,-,N/A,,Clear,230,2012-11-10 16:56:00
10:56 AM,44.1,19.9,38,29.85,10.0,WSW,18.4,26.5,N/A,,Clear,250,2012-11-10 17:56:00
11:56 AM,45.0,21.0,39,29.83,10.0,SW,19.6,26.5,N/A,,Clear,220,2012-11-10 18:56:00
12:56 PM,46.0,19.0,34,29.82,10.0,SW,21.9,29.9,N/A,,Clear,230,2012-11-10 19:56:00
1:56 PM,45.0,19.0,36,29.82,10.0,SW,20.7,29.9,N/A,,Partly Cloudy,230,2012-11-10 20:56:00
2:56 PM,42.1,21.0,43,29.84,10.0,West,27.6,36.8,N/A,,Scattered Clouds,260,2012-11-10 21:56:00
3:56 PM,37.9,25.0,60,29.87,10.0,WSW,16.1,27.6,0.00,,Mostly Cloudy,250,2012-11-10 22:56:00
4:56 PM,37.0,24.1,59,29.89,10.0,SW,8.1,-,0.00,,Partly Cloudy,220,2012-11-10 23:56:00
5:56 PM,36.0,26.1,67,29.91,10.0,WSW,6.9,-,N/A,,Overcast,240,2012-11-11 00:56:00
6:56 PM,34.0,24.1,67,29.95,10.0,West,13.8,-,N/A,,Scattered Clouds,260,2012-11-11 01:56:00
7:56 PM,33.1,23.0,66,29.97,10.0,West,11.5,-,N/A,,Mostly Cloudy,260,2012-11-11 02:56:00
8:56 PM,33.1,23.0,66,29.97,10.0,WSW,8.1,-,N/A,,Overcast,240,2012-11-11 03:56:00
9:56 PM,33.1,21.9,64,29.98,10.0,WSW,11.5,-,N/A,,Overcast,250,2012-11-11 04:56:00
10:56 PM,30.9,21.0,67,29.99,10.0,WSW,8.1,-,N/A,,Partly Cloudy,240,2012-11-11 05:56:00
11:56 PM,30.0,21.0,69,30.01,10.0,WSW,9.2,-,N/A,,Clear,250,2012-11-11 06:56:00